Regional Weather Roundup
Issued by NWS

Home | Current Version | Previous Version | Graphics & Text | Print | Product List | Glossary On
Versions: 1 2 3 4 5 6 7 8 9 10 11 12 13 14 15 16 17 18 19 20 21 22 23 24 25 26 27 28 29 30 31 32 33 34 35 36 37 38 39 40 41 42 43 44 45 46 47 48 49 50
000
ASUS45 KPSR 261410
RWRAZ

ARIZONA REGIONAL HOURLY WEATHER ROUNDUP
NATIONAL WEATHER SERVICE PHOENIX AZ
700 AM MST SUN APR 26 2015

NOTE: FAIR INDICATES FEW OR NO CLOUDS BELOW 12,000 FEET WITH NO
SIGNIFICANT WEATHER AND/OR OBSTRUCTIONS TO VISIBILITY.

AZZ001>003-036-261500-
NORTHWEST ARIZONA

CITY           SKY/WX    TMP DP  RH WIND       PRES   REMARKS
BULLHEAD CITY  SUNNY     55  46  71 E5        29.86R
KINGMAN        SUNNY     46  42  86 CALM      29.87R
$$

AZZ004>008-015-016-018-261500-
NORTH CENTRAL ARIZONA

CITY           SKY/WX    TMP DP  RH WIND       PRES   REMARKS
GRAND CANYON   CLOUDY    36  36 100 CALM      29.82R
WILLIAMS       CLOUDY    34  34 100 NW10      29.89R WCI  26
PRESCOTT       CLOUDY    43  38  82 NW10      29.83R
FLAGSTAFF      CLOUDY    34  34 100 SW7       29.80R WCI  28
PAYSON         CLOUDY    41  39  93 SW5       29.83R
PAGE           SUNNY     48  40  73 CALM      29.76R
$$

AZZ009>014-017-261500-
NORTHEAST ARIZONA

CITY           SKY/WX    TMP DP  RH WIND       PRES   REMARKS
WINSLOW        LGT RAIN  42  39  89 W7        29.77R
SAINT JOHNS    CLOUDY    41  34  76 SW12      29.76S
WINDOW ROCK    CLOUDY    38  35  89 CALM      29.77S FOG
SHOW LOW       CLOUDY    36  32  87 SW10      29.81R WCI  28
$$

AZZ023-261500-
GREATER PHOENIX AREA

CITY           SKY/WX    TMP DP  RH WIND       PRES   REMARKS
PHOENIX        PTSUNNY   57  52  83 SW6       29.79R
BUCKEYE        MOSUNNY   55  55 100 CALM      29.82R
LUKE AFB       MOSUNNY   55  50  83 E1        29.80R
DEER VALLEY    PTSUNNY   54  50  86 CALM      29.80R
SCOTTSDALE     CLOUDY    54  50  86 CALM      29.81R
MESA-FALCON    PTSUNNY   52  54 100 N6        29.79R
MESA-GATEWAY   RAIN      54  48  82 W6        29.82R
CHANDLER       PTSUNNY   55  48  76 W7        29.81R
$$

AZZ027-028-261500-
SOUTHWEST MARICOPA COUNTY AND PINAL COUNTY

CITY           SKY/WX    TMP DP  RH WIND       PRES   REMARKS
CASA GRANDE    CLOUDY    57  46  67 SW7       29.80R
GILA BEND      FAIR      59  44  58 SW15      29.82R
$$

AZZ503-504-507>509-261500-
SOUTHEAST ARIZONA

CITY           SKY/WX    TMP DP  RH WIND       PRES   REMARKS
TUCSON         CLOUDY    53  48  83 SE6       29.88R
DAVIS-MONTHAN  PTSUNNY   52  47  84 S5        29.86R
NOGALES        CLOUDY    51  44  77 CALM      29.90R
SIERRA VISTA   SUNNY     48  41  76 W21G28    29.88R
DOUGLAS        MOSUNNY   48  44  86 W9        29.87R
SAFFORD        LGT RAIN  48  46  93 NW10      29.82R
$$

AZZ020-021-025-026-031-261500-
SOUTHWEST ARIZONA

CITY           SKY/WX    TMP DP  RH WIND       PRES   REMARKS
YUMA           SUNNY     59  45  59 CALM      29.86R
$$

CAZ031-033-041-043-047-048-061-261500-
SOUTHERN CALIFORNIA

CITY           SKY/WX    TMP DP  RH WIND       PRES   REMARKS
DOWNTOWN L.A.  CLEAR     55  50  83 VRB3      29.97R
L.A. AIRPORT   PTCLDY    53  50  89 S6        29.98R
SAN DIEGO      PTSUNNY   59  49  69 CALM      30.00R
BURBANK        CLEAR     59  40  49 N10       29.96R
ONTARIO        MOCLDY    51  49  92 CALM      29.97R FOG
RIVERSIDE      MOSUNNY   50  48  93 E3        29.98R
PALM SPRINGS   MOSUNNY   60  40  47 SW3       29.90R
EL CENTRO NAS  SUNNY     60  43  53 W9        29.89R
IMPERIAL       SUNNY     57  44  62 W7        29.87R
BLYTHE         SUNNY     66  34  30 NW13      29.84R
NEEDLES        SUNNY     59  34  39 CALM      29.85R
$$

NVZ020-UTZ003-261500-
SOUTHERN NEVADA-UTAH

CITY           SKY/WX    TMP DP  RH WIND       PRES   REMARKS
LAS VEGAS      MOSUNNY   58  29  33 NW17G29   29.84R
SALT LAKE CITY LGT RAIN  40  36  86 NW13      29.90R WCI  32
$$

NMZ009-TXZ055-261500-
NEW MEXICO-WEST TEXAS

CITY           SKY/WX    TMP DP  RH WIND       PRES   REMARKS
ALBUQUERQUE    LGT RAIN  43  40  89 W14G23    29.81R
EL PASO        CLOUDY    62  22  21 SW18      29.78R
$$


........................KEY........................
SKY/WX - SKY CONDITION/WEATHER
TMP    - TEMPERATURE IN FAHRENHEIT
DP     - DEW POINT IN FAHRENHEIT
RH     - RELATIVE HUMIDITY IN PERCENT
WIND   - DIRECTION AND SPEED IN MILES PER HOUR (MPH)
VRB    - VARIABLE WIND DIRECTION
PRES   - MEAN SEA LEVEL PRESSURE IN INCHES OF MERCURY
         F - FALLING PRESSURE   R - RISING PRESSURE
         S - STEADY PRESSURE
VSB    - VISIBILITY IN MILES
HX     - HEAT INDEX IN FAHRENHEIT
WCI    - WIND CHILL INDEX IN FAHRENHEIT
TC     - TEMPERATURE IN CELSIUS WHICH IS ALSO KNOWN AS
         TEMPERATURE IN CENTIGRADE
AFB    - AIR FORCE BASE
         LUKE AFB IS LUKE AIR FORCE BASE
         DAVIS-MONTHAN IS DAVIS-MONTHAN AIR FORCE BASE
NAS    - NAVAL AIR STATION
         EL CENTRO NAS IS EL CENTRO NAVAL AIR STATION
N/A    - NOT AVAILABLE



USA.gov is the U.S. government's official web portal to all federal, state and local government web resources and services.